カタログに戻る

STARLINK-37754

運用中通信VLEO
NORAD 69201·PAYLOAD·🇺🇸 United States

打ち上げ May 25, 2026 から Cape Canaveral Space Force Station

Loading…

次のパス (今後24時間)

TLE

最新Source: CelesTrak SupGP

元期: Sep 14, 2026, 23:33 UTC

1 69201C 26114V   26257.98173611  .00040809  00000+0  12080-2 0  2570
2 69201  53.1573 139.4249 0001447  85.8286 157.0355 15.34309384    16

AllMySatでSTARLINK-37754をリアルタイム追跡

Download on the App Store